Change the Weather History Date:

Friday, October 8, 2010

  Actual Average Record
Temperature  
Mean Temperature 48 °F -  
Max Temperature 53 °F 56 °F 75 °F (2004)
Min Temperature 44 °F 38 °F 30 °F (1999)
Degree Days  
Heating Degree Days 16    
Moisture  
Dew Point 40 °F    
Average Humidity 71    
Maximum Humidity 82    
Minimum Humidity 58    
Precipitation  
Precipitation 0.00 in - - ()
Sea Level Pressure  
Sea Level Pressure 29.72 in    
Wind  
Wind Speed 5 mph ()    
Max Wind Speed 8 mph    
Max Gust Speed -    
Averages and records for this station are not official NWS values.
T = Trace of Precipitation, MM = Missing Value Source: Averaged Metar Reports

Daily Weather History Graph

Daily Weather History Graph

Search for Another Location

Airport or City:

Trip Planner

Search our weather history database for the weather conditions in past years. The results will help you decide how hot, cold, wet, or windy it might be!

Date:

Astronomy

Oct. 08, 2010 Rise Set
Actual Time 7:03 AM EDT 6:23 PM EDT
Civil Twilight 6:33 AM EDT 6:52 PM EDT
Nautical Twilight 5:59 AM EDT 7:27 PM EDT
Astronomical Twilight 5:24 AM EDT 8:01 PM EDT
Moon 8:13 AM EDT (10/8) 6:26 PM EDT (10/8)
Length of Visible Light 12h 19m
Length of Day
11h 19m
New Moon, 1% of the Moon is Illuminated
Oct 8
New Moon
Oct 14
First Quarter
Oct 22
Full
Oct 30
Last Quarter
Nov 6
New

Hourly Weather History & Observations

Time (EDT) Temp. Windchill Dew Point Humidity Pressure Visibility Wind Dir Wind Speed Gust Speed Precip Events Conditions
12:00 AM 48.2 °F - 33.8 °F 58% 29.72 in 25.0 mi WSW 5.8 mph - N/A   Scattered Clouds
1:00 AM 48.2 °F - 33.8 °F 58% 29.73 in 25.0 mi WSW 4.6 mph - N/A   Partly Cloudy
3:00 AM 44.6 °F 40.7 °F 33.8 °F 66% 29.73 in 25.0 mi WSW 6.9 mph - N/A   Clear
4:00 AM 44.6 °F 40.7 °F 33.8 °F 66% 29.72 in 25.0 mi SW 6.9 mph - N/A   Partly Cloudy
5:00 AM 44.6 °F 40.7 °F 35.6 °F 71% 29.71 in 25.0 mi SW 6.9 mph - N/A   Partly Cloudy
6:00 AM 46.4 °F 43.5 °F 35.6 °F 66% 29.72 in 25.0 mi WSW 5.8 mph - N/A   Mostly Cloudy
7:00 AM 46.4 °F 44.3 °F 37.4 °F 71% 29.70 in 25.0 mi SW 4.6 mph - N/A   Mostly Cloudy
8:00 AM 48.2 °F - 37.4 °F 66% 29.71 in 45.0 mi WSW 5.8 mph - N/A   Mostly Cloudy
8:20 AM 48.2 °F - 39.2 °F 71% - 45.0 mi SW 6.9 mph - N/A Rain Light Rain Showers
9:00 AM 48.2 °F - 39.2 °F 71% 29.70 in 45.0 mi SW 8.1 mph - N/A Rain Light Rain Showers
10:00 AM 51.8 °F - 41.0 °F 67% 29.68 in 35.0 mi SW 6.9 mph - N/A   Mostly Cloudy
11:00 AM 51.8 °F - 41.0 °F 67% 29.70 in 25.0 mi WSW 8.1 mph - N/A Rain Light Rain Showers
12:00 PM 51.8 °F - 42.8 °F 71% 29.69 in 25.0 mi WSW 6.9 mph - N/A   Mostly Cloudy
1:00 PM 51.8 °F - 42.8 °F 71% 29.70 in 25.0 mi WSW 6.9 mph - N/A Rain Light Rain Showers
2:00 PM 51.8 °F - 44.6 °F 76% 29.70 in 25.0 mi WSW 4.6 mph - N/A Rain Light Rain Showers
3:00 PM 51.8 °F - 46.4 °F 82% 29.70 in 25.0 mi West 5.8 mph - N/A Rain Light Rain Showers
4:00 PM 53.6 °F - 46.4 °F 77% 29.70 in 45.0 mi West 5.8 mph - N/A   Mostly Cloudy
5:00 PM 53.6 °F - 46.4 °F 77% 29.70 in 45.0 mi West 5.8 mph - N/A   Scattered Clouds
6:00 PM 53.6 °F - 44.6 °F 72% 29.71 in 45.0 mi West 4.6 mph - N/A   Partly Cloudy
7:00 PM 50.0 °F - 42.8 °F 76% 29.73 in 25.0 mi West 4.6 mph - N/A   Partly Cloudy
8:00 PM 50.0 °F - 42.8 °F 76% 29.75 in 25.0 mi West 3.5 mph - N/A   Partly Cloudy
9:00 PM 46.4 °F - 39.2 °F 76% 29.75 in 25.0 mi SW 2.3 mph - N/A   Partly Cloudy
10:00 PM 44.6 °F 43.1 °F 37.4 °F 76% 29.77 in 25.0 mi SW 3.5 mph - N/A   Partly Cloudy
11:00 PM 44.6 °F 42.2 °F 39.2 °F 81% 29.78 in 25.0 mi WSW 4.6 mph - N/A   Clear